Location: *
(34.8620°S, 39.3380°E)
Time: 01:49:37
(UTC+00:00)

SKYSAT 2 - Pass Details

Date: 11 December 2023
Orbit: 613 x 623 km, 98.3° (Epoch: 26 February)

Event Time Altitude Azimuth Distance (km) Brightness Sun altitude
Exits shadow 20:26:19 29° 233° (SW) 1,172 ? -30.9°
Drops below altitude 10° 20:28:51 10° 209° (SSW) 2,024 ? -31.0°
Sets 20:31:11 0° 201° (SSW) 2,938 ? -31.1°
